Regional Weather Roundup
Issued by NWS Portland, ME

Home | Current Version | Previous Version | Text Only | Print | Product List | Glossary On
Versions: 1 2 3 4 5 6 7 8 9 10 11 12 13 14 15 16 17 18 19 20 21 22 23 24 25 26 27 28 29 30 31 32 33 34 35 36 37 38 39 40 41 42 43 44 45 46 47 48 49 50
000
ASUS41 KGYX 250410
RWRGYX
WEATHER ROUNDUP FOR MAINE AND NEW HAMPSHIRE
NATIONAL WEATHER SERVICE GRAY ME
1200 AM EDT SUN SEP 25 2016

MEZ002-005-006-010-012-015-018-020-021-024-026-027-029-250500-
MAINE

CITY           SKY/WX    TMP DP  RH WIND       PRES   REMARKS
PORTLAND       CLEAR     52  31  44 N12       30.09R
SANFORD        PTCLDY    51  36  56 N7        30.09S
BAR HARBOR     CLOUDY   N/A N/A N/A CALM      30.02S
WISCASSET      CLEAR     47  36  65 CALM      30.08R
FRYEBURG       CLEAR     49  31  49 NE8       30.11R
LEWISTONAUBURN CLEAR     50  32  50 N12       30.08F
AUGUSTA        CLEAR     47  33  58 NW6       30.07S
WATERVILLE     CLEAR     47  35  63 NW3       30.04S
BANGOR         PTCLDY    46  33  60 W3        30.04S
GREENVILLE       N/A     43  36  76 VRB3      30.00F
MILLINOCKET    MOCLDY    40  33  76 W3        30.02F
HOULTON        MOCLDY    39  35  86 CALM      29.97F
PRESQUE ISLE   PTCLDY    40  34  79 W8        29.98F
FRENCHVILLE    CLOUDY    41  34  76 W12       29.94F
CARIBOU        MOCLDY    42  35  76 VRB3      29.95F
$$

NHZ002-005-008-009-011-012-014-250500-
NEW HAMPSHIRE

CITY           SKY/WX    TMP DP  RH WIND       PRES   REMARKS
PORTSMOUTH     CLEAR     51  37  58 NW9       30.07S
ROCHESTER      CLEAR     47  37  68 CALM      30.08S
NASHUA         CLEAR     47  41  80 NW3       30.12S
MANCHESTER     CLEAR     51  38  60 NW3       30.10S
CONCORD        CLEAR     42  37  82 SE3       30.11S
LACONIA        CLEAR     48  37  65 CALM      30.11S
PLYMOUTH       FAIR      45  38  78 NW7       30.10F
BERLIN         CLOUDY    39  35  86 CALM      30.11S
WHITEFIELD     PTCLDY    33  31  92 CALM      30.12F
JAFFREY        CLEAR     46  39  76 CALM      30.13F
KEENE          CLEAR     41  40  96 CALM      30.15S
LEBANON        CLEAR     40  38  93 CALM      30.12F
MT WASHINGTON  FOG       23  23 100 NW47G64     N/A  VSB 1/8 WCI   2
$$

VTZ005-007-008-250500-
VERMONT

CITY           SKY/WX    TMP DP  RH WIND       PRES   REMARKS
MONTPELIER     CLEAR     44  32  62 NW5       30.17S
BURLINGTON     CLEAR     51  34  52 N9        30.16S
$$

MAZ007-012-024-CTZ003-RIZ002-NYZ038-NYZ072-250500-
SOUTHERN NEW ENGLAND AND NY

CITY           SKY/WX    TMP DP  RH WIND       PRES   REMARKS
BOSTON         CLEAR     56  39  53 NW13      30.09F
WORCESTER      CLEAR     52  34  50 NW9       30.12S
NANTUCKET      PTCLDY    59  38  45 NW13      30.07F
PROVIDENCE     CLEAR     52  41  66 W3        30.12S
HARTFORD       PTCLDY    49  42  77 CALM      30.14F
ALBANY         CLEAR     48  40  73 CALM      30.17S
NEW YORK CITY  CLEAR     64  43  46 NE5       30.14S
$$

ANZ081-ANZ082-ANZ150-NHZ014-MEZ023>029-250500-
COASTAL MARINE OBSERVATIONS

STATION/POSITION TIME  TEMP    WIND        PRES    WAVE
                       AIR SEA DIR/SP/G            HT/PER
                 (UTC) (F)     (DEG/KT/KT) (MB)    (FT/S)
MOUNT DESERT ROC 0400   53     330/ 18/ 20 1015.9R
MATINICUS ROCK   0400   53     340/ 28/ 30 1016.2F
ISLE OF SHOALS   0400   56     310/ 19/ 22 1017.9R
JEFFREYS LEDGE   0338      62                N/A     4/ 4
CASHES LEDGE BUO 0350   58 60  310/ 23/ 27 1016.4S   4/ 5
GEORGES BANK BUO 0250   60 64              1015.1    6/ 6
$$

.............KEY..............
   WCI - WIND CHILL
   TC  - TEMPERATURE IN CELSIUS
   VSB - VISIBILITY IN MILES
   HX  - HEAT INDEX
   FAIR- INDICATES FEW OR NO CLOUDS BELOW 12,000 FT, WITH NO
         SIGNIFICANT WEATHER AND/OR OBSTRUCTIONS TO VISIBILITY.






USA.gov is the U.S. government's official web portal to all federal, state and local government web resources and services.